Simultaneous Nadir Overpasses (SNOs) Predictions

Prediction of SNOs between NOAA-19 and NPP Satellite Orbit:

Table of predicted SNOs for the next 14.0 days since TLE Epoch: 9/20/2013
Index Date (NOAA-19) Time (NOAA-19) Lat,Lon (NOAA-19) SZA (NOAA-19 ) Date (NPP) Time (NPP) Lat,Lon (NPP) SZA (NPP ) Distance(km) Time Diff (sec)
1 09/22/2013 10:12:25 80.94, -25.91 84.11 09/22/2013 10:13:20 80.95, -26.01 84.10 1.83 55
2 09/22/2013 11:03:23 -80.96, 140.98 95.83 09/22/2013 11:04:05 -80.95, 141.16 95.87 3.06 42
3 09/22/2013 11:54:28 80.93, -50.93 84.07 09/22/2013 11:54:49 80.93, -51.04 84.07 1.95 21
4 09/22/2013 12:45:26 -80.94, 115.97 95.87 09/22/2013 12:45:34 -80.94, 116.13 95.90 2.93 8
5 09/22/2013 13:36:31 80.91, -75.95 84.02 09/22/2013 13:36:18 80.91, -76.06 84.04 2.06 13
6 09/22/2013 14:27:29 -80.92, 90.95 95.92 09/22/2013 14:27:03 -80.92, 91.10 95.93 2.80 26
7 09/22/2013 15:18:34 80.89,-100.97 83.98 09/22/2013 15:17:47 80.90,-101.09 84.02 2.18 47




NCC Satellite Simultaneous Nadir Overpasses (SNOs) Prediction Service
